Regional Weather Roundup
Issued by NWS

Home | Current Version | Previous Version | Text Only | Print | Product List | Glossary Off
Versions: 1 2 3 4 5 6 7 8 9 10 11 12 13 14 15 16 17 18 19 20 21 22 23 24 25 26 27 28 29 30 31 32 33 34 35 36 37 38 39 40 41 42 43 44 45 46 47 48 49 50

000
ASUS43 KMPX 211510
RWRMN
WEATHER ROUNDUP FOR MINNESOTA
NATIONAL WEATHER SERVICE TWIN CITIES/CHANHASSEN MN
1000 AM CDT SAT OCT 21 2017


NOTE: "FAIR" INDICATES FEW OR NO CLOUDS BELOW 12,000 FEET WITH NO
SIGNIFICANT WEATHER AND/OR OBSTRUCTIONS TO VISIBILITY. N/A MEANS
CURRENT SKY AND/OR WEATHER CONDITIONS ARE NOT AVAILABLE.

MNZ060>063-068>070-211600-
   Twin Cities Metro

CITY           SKY/WX    TMP DP  RH WIND       PRES   REMARKS
TWIN CITIES    RAIN      61  60  97 S14       29.68F FOG
ST PAUL        RAIN      60  59  96 SE14      29.70S FOG
CRYSTAL        LGT RAIN  60  56  86 SE12      29.66F
BLAINE         LGT RAIN  61  61 100 SE14G20   29.67S
LAKEVILLE      CLOUDY    57 N/A N/A S14G22    29.69R
EDEN PRAIRIE   LGT RAIN  61  59  93 S13G21    29.66F
SOUTH ST PAUL  RAIN      60  60 100 S14G21    29.69F
LAKE ELMO      RAIN      59  59 100 S15G21    29.72R
$$
MNZ001>005-007-008-013>017-022>024-027-028-211600-
   Northwest Minnesota

CITY           SKY/WX    TMP DP  RH WIND       PRES   REMARKS
BEMIDJI        CLOUDY    62  56  80 S16G24    29.52R
HALLOCK        SUNNY     63  48  59 SW18G26   29.37R
ROSEAU         CLOUDY    64  59  82 S21       29.41S
WARROAD        CLOUDY    63  59  88 S17       29.44R
THIEF RVR FALL CLOUDY    64  57  78 S22G30    29.44S
CROOKSTON      CLOUDY    64  57  77 S20G28    29.43R
FOSSTON        MOSUNNY   63  55  77 S20       29.46S
DETROIT LAKES  CLOUDY    63  55  77 S16       29.50S
MOORHEAD       CLOUDY    64  57  77 S16G26    29.47R
PARK RAPIDS    CLOUDY    62  56  80 S20G28    29.54R
MAHNOMEN       CLOUDY    64  57  80 S15G22    29.47S
$$
MNZ006-009>011-018-025>026-211600-
   North Central Minnesota

CITY           SKY/WX    TMP DP  RH WIND       PRES   REMARKS
BAUDETTE       CLOUDY    64  57  78 S15G29    29.48R
FLAG ISLAND    CLOUDY    57  54  88 SE22      29.42S
INTL FALLS     CLOUDY    64  53  67 S9G18     29.55S
WASKISH        CLOUDY    64  57  77 S8G22     29.52R
BIG FORK       PTSUNNY   63  54  72 S12G21    29.58S
LONGVILLE      CLOUDY    63  55  77 SE18      29.58R
GRAND RAPIDS   LGT RAIN  61  54  77 S13G22    29.63R
CRANE LAKE     CLOUDY    61  54  77 S9        29.64S
ORR            CLOUDY    63  52  67 S12       29.59F
COOK           CLOUDY    61  54  77 S14G20    29.64S
WALKER         CLOUDY    61  55  78 SE14G21   29.55R
$$
MNZ012-019>021-037-211600-
   Northeast Minnesota

CITY           SKY/WX    TMP DP  RH WIND       PRES   REMARKS
DULUTH         LGT RAIN  58  55  90 S16G29    29.70R
ELY            CLOUDY    61  50  67 S12G18    29.68S
HIBBING        CLOUDY    60  52  74 S8G16     29.65R
EVELETH        CLOUDY    60  49  66 S15G23    29.67R
DULUTH HARBOR  LGT RAIN  57  55  94 S16       29.70R
TWO HARBORS    LGT RAIN  63  55  77 S9        29.70R
SILVER BAY     CLOUDY    61  52  72 S6        29.71R
GRAND MARAIS     N/A     58  50  75 NE5       29.76R
G MARAIS ARPRT CLOUDY    57  45  62 S14G20    29.77S
$$
MNZ029>031-032-039>041-046>048-054>057-064-211600-
   West Central Minnesota

CITY           SKY/WX    TMP DP  RH WIND       PRES   REMARKS
FERGUS FALLS   CLOUDY    63  57  82 S17       29.50R
WHEATON        CLOUDY    64  57  77 SE13      29.50S
MORRIS         CLOUDY    64  59  82 S13       29.51R
ALEXANDRIA     CLOUDY    63  57  81 S14       29.56R
ELBOW LAKE     CLOUDY    62  58  87 S17       29.52R
WADENA         CLOUDY    61  55  82 S12       29.54S
GLENWOOD       CLOUDY    63  57  82 S14       29.55S
APPLETON       CLOUDY    68  59  73 S9G16     29.50S
BENSON         CLOUDY    66  57  72 S16       29.54R
ORTONVILLE     CLOUDY    64  57  77 N9        29.50R
MADISON        CLOUDY    70  61  73 S13G18    29.51S
WILLMAR        CLOUDY    66  61  82 S14G23    29.58R
$$
MNZ033>034-036-042>043-049>051-058-059-211600-
   Central Minnesota

CITY           SKY/WX    TMP DP  RH WIND       PRES   REMARKS
ST CLOUD       LGT RAIN  59  59 100 SE18G25   29.62S
SAUK CENTRE    CLOUDY    63  56  80 SE17G23   29.56F
PAYNESVILLE    CLOUDY    62  58  88 S16G22    29.59S
AITKIN         DRIZZLE   55  54  94 S16G24    29.61S
PINE RIVER     CLOUDY    59  52  77 SE14G21   29.61S
BRAINERD       CLOUDY    60  55  83 SE13G23   29.60S
STAPLES        CLOUDY    61  54  77 S13       29.56S
LONG PRAIRIE   CLOUDY    61  54  77 E15       29.56F
LITTLE FALLS   CLOUDY    59  54  82 SE12      29.60S
LITCHFIELD     CLOUDY    63  61  94 S8G17     29.61S
BUFFALO        HVY RAIN  59  56  91 SE10      29.64F
MAPLE LAKE     HVY RAIN  60  59  97 SE7       29.64F
HUTCHINSON     CLOUDY    62  60  96 S13G20    29.62S
$$
MNZ037-044-045-052-053-211600-
   East Central Minnesota

CITY           SKY/WX    TMP DP  RH WIND       PRES   REMARKS
PRINCETON      LGT RAIN  61  57  88 SE10G16   29.66F
MORA           RAIN      54  54 100 S8        29.69S
CAMBRIDGE      RAIN      61  61 100 SE9       29.68S
RUSH CITY      HVY RAIN  58  56  92 S9G17     29.69S
MOOSE LAKE     RAIN      57  55  94 S7        29.67S
HINCKLEY       LGT RAIN  59  59 100 SE12G17   29.69S
CLOQUET        LGT RAIN  59  54  82 SE7       29.69R
MCGREGOR       CLOUDY    59  55  88 S14       29.64F
$$
MNZ071>073-080-081-089-090-097-098-211600-
   Southwest Minnesota

CITY           SKY/WX    TMP DP  RH WIND       PRES   REMARKS
MONTEVIDEO     CLOUDY    68  61  77 SW14G22   29.53R
GRANITE FALLS  CLOUDY    67  61  80 SE21G28   29.56S
CANBY          CLOUDY    68  61  78 S15       29.53R
MARSHALL       CLOUDY    68  61  78 S20G30    29.53F
REDWOOD FALLS  CLOUDY    66  59  78 S23       29.57S
OLIVIA         CLOUDY    63  59  88 S17G28    29.58R
PIPESTONE      CLOUDY    64  59  82 S16G23    29.55S
WORTHINGTON    CLOUDY    63  61  93 S14G21    29.60F
JACKSON        CLOUDY    61  59  94 S15G25    29.65S
TRACY          PTSUNNY   66  62  86 S18G28    29.56S
SLAYTON        CLOUDY    65  61  88 SE18G26   29.58S
$$
MNZ065>067-074>077-082>085-091>093-211600-
   South Central Minnesota

CITY           SKY/WX    TMP DP  RH WIND       PRES   REMARKS
MANKATO        LGT RAIN  61  59  93 S20G25    29.66S
NEW ULM        DRIZZLE   61  57  88 SE17      29.62F
ST JAMES       CLOUDY    63  61  94 SE22G28   29.64S
FAIRMONT       CLOUDY    62  60  93 S23       29.66S
GLENCOE        CLOUDY    63  63 100 SE18G24   29.62F
FARIBAULT      TSTM      59  57  94 SE14      29.74R
OWATONNA       TSTM      61  57  88 SE13G18   29.73F
WASECA         CLOUDY    59  57  94 SE8G16    29.73R THUNDER
$$
MNZ078>079-086>088-094>096-211600-
   Southeast Minnesota

CITY           SKY/WX    TMP DP  RH WIND       PRES   REMARKS
ROCHESTER      CLOUDY    59  56  89 S17G28    29.77F
RED WING       RAIN      61  55  82 S15G21    29.75S
STANTON        RAIN      60  57  90 S15G22    29.71F
DODGE CENTER   LGT RAIN  59  55  88 S23G33    29.73F
WINONA         PTSUNNY   63  54  72 S9G16     29.81F
AUSTIN         CLOUDY    61  55  82 S15G21    29.74F
PRESTON        CLOUDY    60  54  81 S18G26    29.81F
$$
ABBREVIATIONS USED IN REMARKS
   TC - TEMPERATURES IN CELSIUS
  WCI - WIND CHILL INDEX
   HX - HEAT INDEX
  VSB - VISIBILITY
$$



USA.gov is the U.S. government's official web portal to all federal, state and local government web resources and services.